BEIDOU-3 M15 (C34)

Last updated on Dec. 12, 2019, 4:25 a.m. UTC

1 43647U 18078A   19345.39562823 -.00000063  00000-0  10000-3 0  9992
2 43647  55.1611  22.1211 0006545 325.0361 131.8495  1.86232868  7859
UTC
Height (km)
Latitude
Longitude
Inclination
Orbital Period
UTC large
Height (km)
Speed (km/s)
/
Latitude / Longitude
Inclination (degrees)
Orbital Period (minutes)
Azimuth
Elevation
Range (km)
Doppler Factor
iOS Compass Heading
iOS Angle

Next 30 passes for location: Hong Kong

Rise time Rise Azimuth (degrees) Set time Set Azimuth (degrees) Duration Max altitude (degrees)

No matching passes for this satellites